[TLELIST] Archives

 

Current TLEs

July 15th 2006 PDT

HST 1 20580U 90037B 06195.50747755 .00000368 00000-0 15827-4 0 6536 2 20580 028.4682 231.7869 0003994 118.6998 241.3996 15.00064736689201 ISS (ZARYA) 1 25544U 98067A 06196.46018385 .00009026 00000-0 59931-4 0 2976 2 25544 051.6317 041.8335 0010837 079.1928 005.5322 15.76320928437626 CXO 1 25867U 99040B 06194.20833333 .00000000 00000-0 00000+0 0 9499 2 25867 059.9109 096.4356 5801178 290.3757 000.2758 00.37782088 1218 ____________________________________________________________________ These 2-Line ...Continue Reading

Current TLEs

July 14th 2006 PDT

HST 1 20580U 90037B 06194.50948260 +.00000372 +00000-0 +16134-4 0 06659 2 20580 028.4682 238.2928 0003914 108.9380 251.1635 15.00064334689054 ISS (ZARYA) 1 25544U 98067A 06195.30306713 .00009003 00000-0 59846-4 0 2917 2 25544 051.6323 047.7983 0010891 075.1363 278.8451 15.76299201437432 CXO 1 25867U 99040B 06194.20833333 .00000000 00000-0 00000+0 0 9499 2 25867 059.9109 096.4356 5801178 290.3757 000.2758 00.37782088 1218 ____________________________________________________________________ These 2-Line ...Continue Reading

Current TLEs

July 13th 2006 PDT

HST 1 20580U 90037B 06194.24335054 .00000393 00000-0 17763-4 0 6529 2 20580 028.4684 240.0290 0003883 106.0878 254.0136 15.00064369689017 ISS (ZARYA) 1 25544U 98067A 06194.25416667 .00007956 00000-0 53441-4 0 2831 2 25544 051.6326 053.2029 0010643 071.2740 086.5390 15.76274442437277 CXO 1 25867U 99040B 06194.20833333 .00000000 00000-0 00000+0 0 9499 2 25867 059.9109 096.4356 5801178 290.3757 000.2758 00.37782088 1218 ____________________________________________________________________ These 2-Line ...Continue Reading

Current TLEs

July 12th 2006 PDT

HST 1 20580U 90037B 06192.58002454 +.00000378 +00000-0 +16597-4 0 06526 2 20580 028.4686 250.8699 0003861 088.9387 271.1647 15.00063583688765 ISS (ZARYA) 1 25544U 98067A 06193.40136574 .00008110 00000-0 54432-4 0 2792 2 25544 051.6334 057.5964 0010360 069.1185 286.1569 15.76260437437136 CXO 1 25867U 99040B 06194.20833333 .00000000 00000-0 00000+0 0 9499 2 25867 059.9109 096.4356 5801178 290.3757 000.2758 00.37782088 1218 ____________________________________________________________________ These 2-Line ...Continue Reading

Current TLEs

July 11th 2006 PDT

HST 1 20580U 90037B 06190.65056433 +.00000402 +00000-0 +18526-4 0 06698 2 20580 028.4690 263.4459 0003874 068.6864 291.4137 15.00062949688475 ISS (ZARYA) 1 25544U 98067A 06192.15849663 .00009040 00000-0 60234-4 0 2704 2 25544 051.6338 064.0007 0010588 063.9963 073.8557 15.76241810436949 CXO 1 25867U 99040B 06191.58333333 .00000000 00000-0 00000+0 0 9481 2 25867 059.9109 096.4397 5801178 290.3746 003.2350 00.37782088 1212 ____________________________________________________________________ These 2-Line ...Continue Reading

Current TLEs

July 10th 2006 PDT

HST 1 20580U 90037B 06191.24936243 .00000405 00000-0 18762-4 0 6505 2 20580 028.4690 259.5436 0003839 075.3153 284.7864 15.00063252688563 ISS (ZARYA) 1 25544U 98067A 06191.37084491 .00008239 00000-0 55312-4 0 2651 2 25544 051.6333 068.0621 0010604 060.7246 284.6177 15.76224414436815 CXO 1 25867U 99040B 06191.58333333 .00000000 00000-0 00000+0 0 9481 2 25867 059.9109 096.4397 5801178 290.3746 003.2350 00.37782088 1212 ____________________________________________________________________ These 2-Line ...Continue Reading

Current TLEs

July 9th 2006 PDT

HST 1 20580U 90037B 06189.65256711 .00000440 00000-0 21484-4 0 6494 2 20580 028.4689 269.9506 0003868 057.5190 302.5784 15.00062630688322 ISS (ZARYA) 1 25544U 98067A 06190.49662985 .00008834 00000-0 59037-4 0 2607 2 25544 051.6340 072.5656 0010492 057.8538 003.5112 15.76210719436682 CXO 1 25867U 99040B 06188.91666667 .00000000 00000-0 00000+0 0 9472 2 25867 059.8984 096.4228 5798788 290.5241 000.1184 00.37789498 1212 ____________________________________________________________________ These 2-Line ...Continue Reading

Current TLEs

July 8th 2006 PDT

HST 1 20580U 90037B 06188.52150231 .00000432 00000-0 20831-4 0 6484 2 20580 028.4691 277.3271 0003461 044.1242 315.9621 15.00061812688156 ISS (ZARYA) 1 25544U 98067A 06189.47225694 .00016517 00000-0 10667-3 0 2539 2 25544 051.6318 077.8394 0010589 054.0772 310.7656 15.76208806436523 CXO 1 25867U 99040B 06188.91666667 .00000000 00000-0 00000+0 0 9472 2 25867 059.8984 096.4228 5798788 290.5241 000.1184 00.37789498 1212 ____________________________________________________________________ These 2-Line ...Continue Reading

Current TLEs

July 7th 2006 PDT

HST 1 20580U 90037B 06187.59003685 +.00000311 +00000-0 +11395-4 0 06492 2 20580 028.4691 283.3975 0003354 033.9889 326.0904 15.00060736688014 ISS (ZARYA) 1 25544U 98067A 06188.45451389 .00016203 00000-0 10488-3 0 2474 2 25544 051.6316 083.0841 0010673 049.0888 296.8818 15.76173488436355 CXO 1 25867U 99040B 06188.91666667 .00000000 00000-0 00000+0 0 9472 2 25867 059.8984 096.4228 5798788 290.5241 000.1184 00.37789498 1212 ____________________________________________________________________ These 2-Line ...Continue Reading

Current TLEs

July 6th 2006 PDT

HST 1 20580U 90037B 06186.65857111 .00000338 00000-0 13517-4 0 6474 2 20580 028.4691 289.4684 0003335 023.2153 336.8588 15.00060452687878 ISS (ZARYA) 1 25544U 98067A 06187.47055823 .00012969 00000-0 84968-4 0 2366 2 25544 051.6306 088.1542 0010759 046.3204 112.7221 15.76128841436206 CXO 1 25867U 99040B 06188.91666667 .00000000 00000-0 00000+0 0 9472 2 25867 059.8984 096.4228 5798788 290.5241 000.1184 00.37789498 1212 ____________________________________________________________________ These 2-Line ...Continue Reading
  • This mailing list is a public mailing list - anyone may join or leave, at any time.
  • This mailing list is announce-only.

International Space Station (ISS) / Hubble Space Telescope (HST) / Chandra X-Ray Observatory Orbital Data via EMAIL

Privacy Policy:

Private list